Theta_e
303 303 303 304 304 304 303 303 304 303 303 303 302 302 302 302 302 302 302 305 305 306 307 306 305 306 306 307 307 307 308 309 309 308 308 309 310 311 311 311 312 312 313 314 313 315 317 317 316 315 314 312 311 311 311 311 315 321 323 323 321 323 327 324 322 325 324 323 324 324 323 322 320 322 322 320 320 320 319 322 325 322 318 321 323 317 321
303 303 303 304 303 303 303 303 304 303 303 303 302 302 302 302 302 302 302 304 305 305 306 305 305 306 306 306 306 307 307 307 308 308 308 309 308 309 310 310 311 311 312 313 312 313 316 316 313 312 313 313 311 311 311 311 314 319 322 321 319 322 328 325 322 322 319 319 322 322 322 323 321 322 323 321 322 321 320 323 324 321 319 321 320 316 322
303 303 303 303 303 303 304 304 304 304 303 303 302 302 302 302 302 303 302 303 305 305 305 304 304 305 306 305 305 306 307 307 307 308 308 308 307 307 308 309 309 309 311 312 311 311 314 314 313 311 311 312 311 310 311 311 312 317 320 318 318 323 329 326 321 321 319 320 322 321 322 324 322 323 323 321 322 321 319 321 319 319 324 323 318 321 335
303 303 303 303 303 303 303 304 304 303 303 303 303 302 302 302 302 302 302 303 304 304 304 304 304 304 305 305 305 304 306 307 307 308 308 308 307 307 308 308 308 308 309 311 310 310 311 312 313 311 310 311 311 310 311 310 313 317 317 315 318 324 329 326 323 324 323 323 324 322 323 323 322 324 325 322 322 321 320 318 317 322 329 322 320 329 335
303 303 303 303 303 303 303 303 303 303 303 303 303 302 302 302 302 302 303 303 303 303 303 303 304 304 304 304 305 304 305 306 307 308 307 307 307 307 307 307 307 307 308 309 310 311 311 311 311 310 310 310 310 310 310 310 314 316 313 313 320 324 325 325 323 322 321 320 320 319 320 322 322 324 325 323 322 322 321 317 320 329 326 318 326 337 329
303 303 303 303 303 303 303 303 303 303 303 303 303 302 302 302 302 303 303 303 304 303 303 303 304 304 304 305 305 304 304 305 306 307 307 307 307 307 308 307 307 306 307 308 310 311 312 312 311 310 310 311 310 310 311 310 312 313 310 312 319 322 324 323 319 318 317 317 318 319 319 322 322 322 323 322 322 321 320 319 324 329 322 316 328 338 329
303 303 303 303 304 303 303 303 303 304 304 303 303 302 302 302 303 303 303 303 303 303 303 304 304 304 304 305 305 304 304 305 305 306 306 306 306 307 307 307 306 306 306 308 311 312 311 312 311 310 311 311 311 312 313 312 311 310 310 311 314 319 325 324 317 316 318 317 318 320 320 320 320 321 322 322 321 321 319 322 324 325 324 323 330 336 332
303 303 303 303 304 303 303 303 303 304 304 303 303 302 302 302 303 303 303 303 303 303 303 304 304 303 304 305 305 304 304 305 305 305 305 306 306 306 306 306 306 306 307 307 308 309 310 310 310 310 310 310 311 313 313 312 310 310 310 312 313 316 322 321 317 317 319 318 319 319 317 318 319 320 322 322 322 322 320 321 323 323 325 326 329 332 333
303 303 303 303 303 303 303 303 303 303 303 303 303 302 302 302 302 302 302 303 304 304 304 303 303 303 304 305 304 303 304 304 304 304 305 305 306 305 305 305 305 306 307 307 307 307 308 308 308 308 309 309 311 312 312 311 311 311 312 312 313 315 319 320 319 319 320 318 318 317 316 318 320 321 324 325 323 324 321 321 324 325 324 326 325 325 327
303 303 303 303 303 303 303 303 303 303 303 303 303 303 303 303 303 302 302 303 304 304 303 303 303 304 303 304 304 303 303 304 303 304 305 306 305 305 305 305 305 306 307 307 307 307 307 308 308 308 309 309 309 310 310 310 310 311 312 312 314 316 317 318 319 321 323 319 316 316 318 322 323 322 325 327 325 324 323 322 324 325 324 324 322 321 325
303 303 303 303 303 303 303 303 303 303 303 303 303 303 303 303 303 303 302 303 303 303 303 303 303 303 303 303 303 303 303 303 304 304 305 305 305 305 305 305 306 307 307 307 306 306 307 307 308 308 309 309 309 309 309 309 310 311 311 312 315 316 316 318 321 323 323 319 315 319 324 325 323 322 326 331 330 327 323 322 325 326 323 324 324 325 328
303 303 303 303 303 303 303 303 303 303 303 303 303 303 303 303 303 303 303 303 303 302 302 303 303 302 303 303 303 303 303 303 304 305 305 305 304 305 305 305 306 307 307 306 306 307 308 309 309 310 309 309 309 309 309 309 309 311 311 311 314 315 316 319 322 322 322 321 320 325 328 325 321 322 328 332 333 330 329 325 322 324 324 324 326 328 328
303 303 303 303 303 303 303 303 303 303 303 303 303 303 303 303 303 303 303 303 303 302 302 303 303 303 303 303 303 304 304 304 304 304 304 304 304 305 305 306 306 307 307 306 306 308 311 312 312 312 311 310 310 310 309 309 310 310 310 310 312 313 314 318 320 321 322 323 324 327 326 322 322 328 332 334 335 335 338 334 325 325 328 326 323 326 330
303 303 303 304 304 303 303 303 303 303 303 303 303 303 303 303 302 303 303 303 303 303 303 303 303 303 303 303 303 303 303 303 303 303 304 304 304 305 305 306 306 306 306 307 308 310 313 314 313 313 312 312 312 312 311 310 310 309 310 310 311 311 313 316 318 319 321 323 323 324 323 324 331 338 335 334 334 335 338 342 338 338 340 336 328 324 329
303 303 303 303 304 304 304 303 303 303 303 303 303 303 303 303 303 302 303 303 303 303 303 303 303 303 303 303 303 303 302 303 303 303 304 304 304 305 305 305 306 306 306 307 310 313 314 312 311 310 311 312 312 313 313 312 311 310 310 310 311 311 313 315 315 317 320 321 321 323 326 330 336 337 332 331 333 332 332 336 340 342 341 340 339 334 333
303 303 303 303 304 304 304 304 303 303 303 303 303 303 303 303 303 303 303 302 303 303 303 303 303 303 303 303 303 302 303 303 303 303 303 304 305 305 304 305 306 306 307 308 311 312 311 311 311 310 310 311 312 312 313 313 314 313 311 310 311 311 312 312 313 317 320 320 320 322 325 330 335 334 331 330 332 332 331 332 337 339 338 339 343 342 337
304 304 304 304 304 304 304 304 304 304 303 303 303 303 303 303 303 303 303 303 303 303 303 303 303 303 303 303 303 303 303 303 303 303 304 304 304 304 304 305 306 305 307 309 311 311 310 311 312 311 311 311 311 312 313 314 317 319 314 311 311 311 312 313 312 315 319 320 321 322 324 329 334 334 332 330 331 332 332 333 336 337 335 339 343 343 339
304 304 304 304 304 304 304 304 304 304 304 303 303 303 303 303 303 303 303 303 303 303 303 303 303 303 303 303 303 303 303 303 303 303 303 303 304 304 305 305 305 306 307 309 310 310 310 310 311 311 311 311 311 313 313 313 317 319 317 315 314 312 312 314 313 313 317 318 319 320 325 332 335 334 331 331 331 330 330 333 335 334 335 339 340 342 342
304 304 305 305 305 305 305 304 304 304 304 304 303 303 303 303 303 303 303 303 303 303 303 303 303 303 303 303 303 303 303 303 303 303 303 304 304 305 304 304 305 307 307 308 309 309 309 310 311 311 311 312 312 312 312 312 314 316 316 317 318 316 314 315 314 314 318 321 320 320 325 330 333 334 331 331 335 336 333 332 332 331 333 336 337 338 340
304 304 305 305 305 305 305 305 305 305 304 304 304 303 303 303 303 303 303 303 303 303 302 302 302 302 302 303 303 303 303 303 303 303 303 304 304 304 304 305 306 307 307 308 309 309 309 309 310 310 310 312 313 312 311 311 312 313 313 315 318 318 318 318 317 316 322 327 326 324 328 330 331 334 336 334 337 337 332 329 330 330 330 330 333 334 336
304 304 305 306 306 306 306 305 305 305 305 304 304 304 303 303 303 303 303 303 303 303 303 302 302 302 302 303 303 303 303 303 303 303 303 303 304 304 304 305 305 306 307 308 308 309 309 309 310 310 310 311 312 311 311 311 311 312 314 315 316 318 320 323 324 322 325 328 328 328 332 333 331 334 338 335 332 331 329 328 329 330 330 329 329 331 332
304 305 306 306 307 306 306 306 306 305 305 305 304 304 304 303 303 303 303 303 303 303 302 302 302 302 302 302 302 302 303 303 303 303 303 303 304 304 304 304 304 304 305 307 307 308 308 308 309 310 309 310 311 310 311 311 310 311 314 316 317 318 319 321 323 323 324 328 331 331 332 331 330 331 333 331 330 329 328 327 327 328 329 328 327 329 331
304 305 306 305 305 305 306 306 306 306 306 305 304 304 304 303 303 303 303 303 303 303 302 302 302 302 302 302 302 302 303 303 303 303 303 303 303 304 304 304 304 304 304 305 306 307 307 308 309 309 309 310 310 310 310 310 311 311 313 314 315 316 316 317 319 321 323 327 331 331 330 329 329 330 330 329 329 329 327 326 327 327 328 327 326 328 332
305 306 305 304 304 305 306 307 307 307 306 306 305 304 304 304 304 304 303 303 303 303 302 302 302 302 302 302 303 303 303 304 304 304 304 304 304 304 304 304 304 304 304 304 305 306 307 308 309 309 309 309 310 310 309 309 311 312 312 313 313 313 314 315 318 320 322 327 331 331 330 330 329 329 329 327 326 328 328 328 327 327 327 328 328 328 329
306 307 307 305 304 305 307 307 307 307 307 306 306 305 304 304 304 304 304 303 303 302 302 302 302 302 302 303 303 304 304 304 304 304 304 304 304 304 304 305 304 304 305 305 305 306 307 308 308 308 309 309 310 310 310 310 311 311 311 311 311 311 312 313 314 317 321 326 330 331 329 328 327 326 326 324 324 328 330 330 329 328 327 329 330 329 330
306 308 307 306 305 306 308 308 308 307 307 306 306 305 305 304 304 303 303 303 303 303 302 302 302 302 302 303 303 304 304 304 304 304 304 304 305 304 304 305 305 305 305 305 305 306 307 307 308 308 309 309 309 309 310 310 310 310 309 309 310 310 311 311 313 315 316 320 326 330 329 328 326 324 323 322 323 327 330 330 330 331 330 330 330 332 332
307 307 306 305 305 306 307 309 309 308 307 306 306 306 305 305 304 304 303 303 303 303 303 302 302 303 302 303 304 304 305 305 304 304 304 304 305 305 305 305 305 305 305 305 305 306 307 307 308 308 308 309 309 309 310 309 308 308 309 309 309 310 311 312 314 315 317 320 325 329 331 330 328 325 323 322 323 327 330 329 328 330 330 330 330 331 333
307 306 305 305 306 307 308 309 309 308 307 306 306 306 305 305 304 304 304 303 303 303 303 302 303 302 302 303 305 305 305 305 305 305 305 305 305 304 305 305 305 305 305 305 306 306 307 308 308 308 309 310 309 310 310 309 309 309 309 310 310 311 313 315 315 316 318 320 322 324 328 329 327 325 325 325 326 328 330 328 328 329 329 329 329 329 331
306 304 305 306 307 309 310 311 310 308 306 306 306 306 305 305 304 304 304 304 303 303 303 302 303 303 303 304 305 306 306 306 306 306 306 306 305 305 305 305 305 305 305 305 305 306 306 307 307 308 309 310 310 310 310 309 310 311 311 311 311 311 313 315 316 317 317 318 318 321 325 327 326 325 326 326 326 328 329 328 328 328 328 327 327 327 328
304 305 306 308 309 311 312 312 311 309 307 306 305 306 305 305 305 305 305 304 303 303 303 302 302 303 304 304 305 306 306 306 306 306 307 306 307 307 306 306 305 305 305 306 305 305 306 306 306 307 308 309 309 309 309 310 311 311 311 311 311 313 314 315 316 316 317 318 319 321 324 325 325 325 325 326 326 327 328 327 327 327 327 326 325 325 326
304 306 308 310 311 312 312 312 312 310 308 306 306 305 305 305 306 306 305 303 303 303 303 302 303 303 304 304 305 306 306 306 306 307 308 308 308 309 308 307 306 306 306 306 306 306 306 307 307 308 309 309 310 309 309 310 311 311 311 311 313 314 314 315 315 316 318 319 320 321 323 325 325 324 324 324 324 324 324 324 324 324 324 323 322 322 322
305 308 310 311 311 312 312 312 312 311 309 308 308 307 306 306 306 305 304 304 303 303 303 303 303 304 305 305 305 305 306 307 308 308 309 309 309 310 310 309 308 307 307 306 306 306 307 306 307 308 308 310 311 311 310 311 311 312 311 312 312 312 313 315 316 318 319 320 321 323 325 325 324 324 323 323 322 322 321 321 321 322 321 321 322 321 321
307 310 311 311 312 312 312 312 312 311 310 309 309 309 308 307 306 305 305 304 304 303 303 303 303 304 305 305 305 307 307 308 309 310 310 310 310 310 310 310 309 308 307 307 307 307 307 307 308 308 309 310 311 312 312 312 311 311 311 311 312 313 314 316 318 319 319 321 323 324 325 324 324 324 323 322 322 323 321 320 320 321 321 321 321 321 321
309 311 311 311 312 312 313 312 311 311 310 310 309 309 309 309 307 306 305 304 304 304 303 303 303 304 305 305 307 308 308 309 309 310 311 311 311 311 310 310 309 308 308 308 308 308 309 311 311 312 312 312 313 313 313 312 312 312 312 313 314 314 315 317 319 319 320 322 325 326 325 324 324 324 323 322 323 323 322 321 322 322 322 321 321 321 321
310 311 311 311 312 312 313 312 311 311 310 310 310 310 309 309 309 308 306 305 304 304 303 303 303 304 305 306 307 309 309 309 309 310 311 311 311 312 312 310 309 309 309 308 309 310 311 312 313 313 314 314 313 313 314 314 313 313 314 314 314 314 315 318 320 321 322 324 326 326 324 324 324 324 323 323 323 323 322 322 324 324 324 324 324 324 324
311 311 311 312 312 312 313 312 311 311 311 310 310 310 310 310 310 309 308 307 305 304 303 303 304 305 305 306 307 307 308 310 310 311 312 312 312 313 313 312 312 312 310 309 311 313 313 313 313 314 314 314 314 314 314 314 313 313 314 314 313 313 315 318 320 321 323 325 326 325 323 323 324 324 324 324 323 322 322 324 325 326 326 326 326 326 326
311 311 312 312 313 313 312 312 311 311 311 311 310 310 310 309 309 308 307 307 306 305 304 304 304 305 306 307 307 307 308 310 311 312 312 313 313 313 312 312 314 315 313 313 314 315 314 313 314 314 314 314 314 313 313 312 313 313 313 314 314 315 317 319 320 321 323 324 324 323 322 322 322 322 321 321 322 322 323 325 326 326 326 327 327 327 328
311 312 312 312 313 313 312 312 311 311 311 311 310 310 310 309 307 307 306 306 306 306 305 304 304 305 305 306 307 307 309 310 311 312 312 313 313 313 313 313 315 315 313 314 315 314 313 314 314 313 314 313 312 312 313 315 316 316 316 317 317 318 320 321 321 323 324 324 323 322 322 321 320 319 318 319 321 323 325 325 325 326 326 327 328 328 329
312 313 313 313 313 313 312 312 312 312 311 311 311 311 310 309 308 307 305 305 305 305 304 304 304 304 305 305 306 307 308 309 310 311 313 313 313 313 313 314 314 313 313 314 314 313 313 314 312 311 312 313 313 314 317 319 319 319 318 318 319 321 321 321 322 323 324 323 322 321 320 320 320 320 319 319 322 324 325 325 325 326 327 328 328 329 330
312 313 313 313 313 313 313 312 313 312 312 311 311 311 310 310 309 308 307 305 305 305 304 304 305 305 305 305 307 308 309 309 310 311 313 313 312 313 313 313 312 312 312 313 313 311 312 312 311 310 312 314 315 316 317 317 318 320 318 316 317 320 322 322 322 323 324 322 321 321 320 320 320 321 321 321 323 324 325 325 326 327 328 329 329 329 330
312 313 313 313 313 313 313 313 313 312 311 311 312 312 311 311 311 310 309 308 308 307 306 306 308 309 308 306 307 308 310 310 311 312 312 311 311 312 312 311 310 311 313 313 311 309 309 311 311 312 313 314 314 315 316 315 316 318 318 315 316 320 322 321 321 323 324 323 323 323 323 323 324 324 324 324 324 325 325 326 327 329 329 329 330 330 330
313 313 313 314 313 314 314 314 313 313 312 312 313 313 313 312 312 312 311 311 312 312 310 309 310 312 312 310 309 309 311 312 312 312 311 311 311 311 310 308 308 311 313 312 310 308 310 312 313 313 313 314 314 315 317 316 316 317 317 316 317 321 323 321 321 322 323 323 323 324 324 324 325 326 326 327 327 327 327 328 329 330 329 329 329 329 329
314 314 314 314 313 314 314 314 313 314 314 314 314 314 314 314 315 316 316 314 315 315 315 314 314 315 315 314 313 312 313 313 313 313 312 312 311 309 309 309 311 313 313 311 310 310 312 314 314 314 314 315 317 317 318 318 317 318 319 318 319 321 322 322 322 322 322 322 323 323 323 323 324 325 327 328 328 328 328 328 329 328 328 327 328 327 327
315 314 314 314 313 314 315 315 314 314 316 315 314 315 316 316 316 317 317 316 316 317 317 317 317 318 317 316 315 315 315 314 313 313 314 313 312 310 311 312 313 314 313 312 312 312 313 314 316 316 316 316 318 318 318 318 317 318 318 318 319 320 320 321 321 322 321 322 323 323 322 323 323 324 325 326 327 327 327 327 327 327 326 326 326 326 325
315 313 313 314 314 314 315 316 314 314 315 315 314 315 316 316 317 317 317 316 316 317 317 317 318 318 318 317 317 317 317 316 316 316 315 315 314 314 315 315 314 313 313 314 314 315 315 317 318 317 317 317 318 317 317 317 317 317 317 317 318 319 319 319 319 319 320 320 322 322 322 323 323 322 323 325 325 326 326 325 325 324 324 323 323 323 322
314 312 311 314 314 314 314 315 315 315 315 315 314 314 315 315 316 316 316 316 316 316 316 317 317 318 317 317 318 317 316 317 317 317 316 316 317 317 316 315 314 314 315 317 317 318 319 319 318 318 317 317 316 315 315 315 315 315 316 316 317 317 318 318 318 318 318 318 319 319 321 322 323 323 323 323 323 324 324 324 323 321 320 319 320 320 320
315 312 312 314 315 314 314 315 315 314 314 314 314 314 314 315 315 315 315 316 316 316 316 316 317 317 317 317 317 318 316 316 318 317 316 317 317 316 315 315 315 315 317 319 319 319 319 318 317 317 315 314 313 313 312 313 313 314 314 314 315 316 316 317 317 317 317 317 316 317 318 320 320 320 321 321 321 322 322 322 320 319 319 319 319 319 319
314 314 314 315 315 314 314 315 314 313 313 313 313 313 314 314 314 315 315 315 316 316 316 315 316 318 318 317 318 318 316 316 317 317 315 315 316 315 315 316 316 317 319 320 320 319 319 317 316 314 313 312 311 311 311 311 312 312 312 312 313 314 315 315 316 315 316 316 315 316 316 317 317 318 319 319 319 319 320 320 319 319 318 318 317 317 318
314 314 315 315 314 313 313 314 313 312 312 313 313 313 314 314 314 314 316 315 316 316 316 315 316 319 318 317 317 319 317 316 317 317 315 315 315 314 315 317 318 318 319 319 319 318 318 315 313 312 311 310 310 310 310 310 311 311 311 311 311 312 313 313 314 314 315 315 315 315 316 316 316 317 318 317 317 317 318 318 318 317 317 316 315 315 316
314 314 314 314 314 314 313 313 313 313 312 312 312 312 313 313 313 314 315 315 315 316 316 315 316 318 317 316 317 319 318 316 317 318 317 317 316 314 315 316 317 317 317 317 317 317 317 314 312 310 309 309 309 309 309 310 310 310 310 311 311 311 311 312 312 313 314 315 315 315 316 315 315 316 316 315 315 315 316 316 316 315 315 315 314 315 315
314 314 314 313 314 314 313 313 314 313 312 312 312 311 312 312 313 314 315 315 315 315 316 315 316 318 317 317 317 318 317 316 317 317 317 316 316 315 314 315 315 315 315 314 314 315 315 313 312 311 310 309 308 309 309 309 309 309 310 311 311 312 311 311 312 312 313 313 315 315 315 315 315 316 315 315 315 315 315 315 315 314 315 315 315 314 314
314 314 314 313 313 313 312 312 312 312 312 311 311 311 311 311 312 313 314 314 314 315 315 314 315 317 318 316 316 316 316 316 317 317 316 316 315 315 314 314 313 312 313 312 312 312 311 310 309 309 308 308 308 308 309 309 309 308 309 309 310 310 311 311 311 311 311 312 313 313 314 315 315 315 315 315 315 315 314 313 314 315 315 314 314 314 314
Wind_Speed
27 27 27 27 28 28 28 27 26 27 27 28 29 27 20 12 13 18 21 18 17 12 4 5 6 2 7 10 8 10 10 9 10 9 9 8 4 3 3 1 2 2 2 2 2 3 2 3 4 5 4 3 4 14 21 18 10 5 3 3 5 4 1 2 3 3 3 5 6 6 4 5 8 9 7 8 8 8 8 6 5 4 4 2 2 7 8
27 27 27 28 28 27 27 26 24 24 25 25 26 23 17 17 20 17 18 17 15 10 4 5 5 5 10 10 8 9 9 10 12 9 7 7 5 3 3 2 2 2 3 3 3 4 3 3 4 5 1 1 8 18 23 16 7 5 5 5 5 4 1 1 0 2 3 4 5 6 3 1 3 5 7 9 10 11 7 3 4 4 7 8 6 8 7
26 27 27 27 27 26 25 23 22 22 22 22 22 19 17 16 13 12 18 18 14 11 7 6 5 7 10 10 8 8 8 9 15 14 8 9 9 5 4 5 5 5 4 3 4 5 4 2 2 4 2 1 7 17 21 14 6 6 11 12 6 1 1 1 2 5 6 4 5 5 3 3 3 3 6 11 13 13 10 5 4 6 7 9 7 7 6
26 26 27 26 26 25 23 21 20 20 20 20 19 16 13 11 4 6 17 17 11 10 10 10 8 6 8 7 6 7 7 6 13 14 9 11 14 9 5 8 7 7 6 4 4 6 5 3 2 3 4 2 4 13 17 11 9 10 14 16 8 1 1 1 2 2 2 1 5 4 3 4 5 8 9 9 12 15 12 8 8 7 5 7 8 7 5
25 25 25 25 25 24 23 21 20 20 19 18 18 15 9 5 2 4 9 9 7 9 11 12 8 7 8 4 3 7 9 7 8 8 6 12 16 8 5 10 9 7 8 4 2 4 4 2 2 3 3 3 4 11 11 7 11 12 12 13 6 3 2 2 3 2 1 3 10 10 6 5 6 9 11 10 10 14 16 14 9 8 7 11 10 8 8
24 24 24 24 24 23 23 22 20 20 19 18 16 13 6 2 4 7 6 3 3 6 9 11 10 10 9 3 3 7 8 8 8 5 5 10 12 6 4 9 10 7 8 4 1 3 3 2 2 3 3 4 5 8 6 4 12 13 9 9 4 3 2 2 4 5 6 5 10 12 8 6 7 9 12 13 12 14 18 17 10 10 10 14 10 10 10
23 23 23 23 23 23 22 21 21 20 19 18 14 9 5 3 5 7 5 3 5 8 12 12 9 9 8 4 3 5 7 8 8 5 4 6 6 5 3 7 10 8 5 3 2 1 2 2 2 2 3 4 3 4 3 3 11 12 6 6 3 2 1 2 3 6 8 7 8 9 7 7 8 11 11 13 14 15 17 15 12 12 13 12 8 10 11
22 22 22 22 22 22 22 21 21 20 18 17 13 7 6 5 5 7 7 6 9 11 10 8 6 7 7 4 2 4 7 10 9 6 6 6 3 5 5 8 10 8 5 3 3 2 2 2 2 2 3 3 1 1 1 2 7 8 4 4 4 1 1 2 3 4 7 8 6 6 9 10 11 13 12 11 13 13 14 13 10 10 10 10 9 9 8
22 22 21 22 22 22 22 21 20 19 17 16 12 8 9 9 9 10 8 5 6 7 5 4 4 4 3 2 4 6 8 11 12 9 7 5 1 5 8 10 8 6 6 4 4 4 5 4 6 6 5 5 4 3 2 2 5 4 2 3 3 1 1 2 4 3 5 6 6 10 14 13 12 12 11 10 10 10 10 9 9 10 10 10 12 11 8
22 22 21 21 21 21 22 21 19 18 17 15 12 10 11 11 11 10 7 4 3 4 3 3 3 2 2 4 7 8 9 11 12 8 4 3 5 7 9 11 7 4 5 4 5 9 11 13 15 15 13 12 11 11 10 8 4 2 1 2 2 2 1 1 2 1 4 7 7 10 12 10 8 7 5 7 9 10 10 9 9 11 11 10 13 12 8
22 22 21 21 21 21 21 20 19 18 16 14 13 13 12 11 10 10 6 4 3 2 2 2 2 3 6 9 9 8 9 10 9 6 4 8 16 17 14 11 6 3 4 7 11 15 18 18 18 17 17 17 16 16 16 13 11 8 4 1 2 3 2 2 1 2 4 9 8 8 5 5 4 1 1 4 8 9 12 13 12 10 11 11 11 8 8
21 21 21 21 21 21 21 20 19 17 16 14 13 14 12 10 9 9 6 4 4 3 2 3 4 7 10 13 11 8 9 9 10 11 9 11 18 21 16 9 4 4 9 16 20 19 16 13 11 12 14 15 15 15 14 13 13 15 12 7 4 3 3 2 2 2 3 6 6 3 6 6 6 7 5 4 4 4 6 13 15 14 13 13 10 8 8
22 21 21 20 20 21 20 19 18 17 16 15 14 14 12 10 10 10 8 5 5 4 4 7 10 12 14 13 10 9 12 13 15 16 13 11 14 17 15 9 7 12 18 22 22 15 7 5 5 5 6 7 7 9 12 14 15 16 16 13 8 5 3 3 2 2 1 2 2 4 6 8 11 9 8 7 5 9 9 7 12 11 8 8 9 10 9
24 23 22 20 20 20 20 20 19 18 16 15 14 14 12 10 10 12 10 6 4 5 7 6 6 8 8 8 9 10 12 14 15 12 9 9 11 13 14 13 14 17 19 19 15 7 2 1 3 4 3 2 2 3 8 12 15 17 17 14 12 9 5 3 3 3 3 2 4 4 6 11 9 3 4 5 3 5 5 4 8 7 3 3 7 9 9
25 24 23 22 20 20 20 20 19 18 17 16 15 14 13 11 10 12 12 8 5 6 8 8 6 6 6 8 10 9 8 7 8 8 9 11 11 11 14 16 16 16 16 11 5 1 1 1 1 2 2 1 1 3 2 3 7 14 18 16 13 11 8 5 5 4 4 3 4 3 4 5 3 1 1 1 4 5 2 3 5 6 6 5 5 7 9
26 25 24 23 21 20 20 19 19 18 18 16 16 15 13 10 10 11 12 11 7 4 5 7 7 8 9 11 12 9 6 3 3 6 7 5 6 12 18 18 15 14 12 7 1 1 1 1 1 2 2 0 1 3 3 2 3 5 11 14 14 13 9 5 5 4 5 5 5 3 3 5 4 3 4 5 6 2 4 2 5 5 10 13 9 8 9
28 27 26 23 22 20 20 20 19 18 18 17 16 16 13 10 10 11 12 13 10 10 13 14 14 14 10 7 8 7 6 5 5 5 5 4 8 15 18 16 14 12 8 3 1 1 0 1 1 2 3 2 1 3 3 2 2 2 1 7 11 11 8 6 7 6 5 6 5 3 4 5 4 4 6 9 8 2 5 3 5 6 14 17 11 8 9
29 29 28 27 24 21 19 19 19 18 18 17 17 17 15 11 11 11 12 13 11 11 15 14 14 14 10 6 7 7 6 7 6 5 5 7 8 9 12 14 11 7 5 1 1 0 1 2 2 2 3 1 0 2 3 2 3 3 3 2 6 7 7 7 8 8 7 8 6 3 4 4 4 5 8 11 8 2 5 4 5 10 16 19 15 12 11
30 30 30 30 28 24 20 19 18 18 18 17 17 19 17 13 12 11 13 15 13 12 14 12 13 17 16 13 16 16 13 12 9 5 4 5 3 7 15 14 6 2 3 2 0 1 1 1 0 1 2 2 1 1 3 2 3 3 4 2 3 5 5 6 8 8 6 6 5 4 4 3 3 3 5 10 5 3 3 7 13 15 16 18 18 16 14
30 30 30 31 30 28 24 22 20 18 18 18 18 20 19 15 13 12 13 16 17 21 25 23 21 23 23 20 21 20 16 14 11 6 4 5 5 10 11 5 1 2 3 1 0 1 1 2 1 1 1 1 1 1 2 3 4 3 3 5 3 2 3 5 8 8 6 5 6 5 5 3 4 4 4 8 2 4 8 13 14 13 15 18 18 17 16
31 31 31 31 32 30 26 23 21 19 18 18 18 21 22 19 14 13 14 16 18 20 20 17 15 18 21 23 25 24 21 19 17 12 10 11 9 6 3 3 3 3 2 1 1 1 0 1 1 1 1 1 1 2 2 4 5 4 4 4 4 3 3 3 4 5 5 6 6 4 4 3 3 3 3 2 1 6 12 13 10 11 17 18 17 17 16
31 32 32 33 34 32 26 23 22 20 19 18 18 21 23 22 18 15 15 16 19 22 24 24 25 28 30 31 31 31 30 30 30 25 20 16 13 11 11 11 10 7 4 2 1 1 1 2 2 2 2 2 1 2 3 3 4 2 1 2 3 3 3 4 4 4 4 6 5 4 8 8 7 12 13 7 2 5 9 10 8 12 16 17 17 17 15
31 32 33 34 34 32 27 23 21 21 19 18 19 22 24 23 20 18 17 18 21 27 31 31 29 30 31 29 24 23 24 25 26 27 25 20 15 14 17 18 13 10 10 8 6 3 1 2 2 2 2 2 1 2 3 3 3 3 3 3 5 8 10 8 5 5 8 9 7 7 11 10 11 18 21 14 8 8 9 10 10 13 15 15 15 15 13
31 32 34 35 34 33 29 24 21 21 19 18 19 22 24 24 21 18 18 18 19 21 22 21 21 23 22 17 11 9 12 14 15 15 17 21 17 12 14 18 14 10 11 14 13 9 5 3 2 1 2 2 1 1 3 4 3 4 5 5 5 5 7 6 5 7 7 6 6 6 8 11 12 17 19 12 9 12 10 11 12 12 12 13 12 11 11
32 33 34 34 33 32 30 25 22 20 19 18 18 20 23 25 23 20 18 16 15 13 10 12 19 20 14 12 12 13 13 13 14 14 15 21 24 20 17 17 14 12 12 13 11 11 8 4 2 3 3 3 3 2 3 4 3 2 3 5 5 4 8 8 6 6 6 7 5 4 8 10 9 12 14 10 3 10 10 10 12 12 12 11 10 9 10
33 34 35 33 30 29 29 26 22 20 20 19 19 20 23 24 23 21 19 18 18 15 9 11 20 21 16 18 22 22 20 19 19 19 19 20 23 24 23 21 18 16 15 14 12 11 8 4 3 4 3 4 4 3 2 3 3 3 4 9 11 10 9 7 6 6 8 11 7 6 7 4 5 8 10 8 3 5 7 10 13 13 12 12 10 9 10
34 35 35 33 30 29 28 26 23 21 19 18 18 20 23 24 23 23 22 19 16 11 6 8 16 20 22 25 24 20 18 18 15 16 18 19 20 22 24 24 24 22 20 16 14 12 8 4 4 5 5 5 5 4 4 5 5 4 6 11 11 9 8 7 6 6 6 6 6 4 3 1 5 11 13 10 8 6 1 7 11 12 12 12 10 7 9
35 35 34 32 30 28 27 26 23 20 17 16 18 19 20 22 23 23 24 22 19 16 13 15 21 25 27 26 21 17 14 12 9 10 13 15 18 21 24 25 26 26 21 15 10 7 5 5 5 5 5 5 5 4 5 5 5 5 7 10 9 8 9 7 5 6 7 11 19 17 7 3 10 17 19 18 15 13 10 8 7 6 6 8 9 5 9
36 35 33 31 29 28 27 25 21 18 15 14 14 16 20 23 23 22 23 22 23 25 24 22 22 21 19 20 23 19 11 7 8 8 9 11 14 19 22 25 27 27 23 16 10 6 6 8 9 8 7 5 2 2 3 3 5 7 10 13 15 17 19 17 12 9 14 23 29 25 13 5 16 23 23 20 18 16 15 12 7 5 3 3 6 2 9
36 35 31 29 28 29 28 25 20 16 13 11 11 12 15 17 15 13 15 15 17 22 22 14 10 10 15 21 25 19 10 9 11 9 10 12 14 16 19 22 25 26 22 17 13 9 7 8 10 12 15 13 6 1 2 4 5 8 12 16 20 20 21 21 18 17 22 29 29 25 18 9 20 24 21 20 18 16 15 14 10 8 6 4 6 2 7
36 34 31 29 28 28 27 23 19 15 12 11 10 8 7 7 6 4 7 7 10 17 19 13 9 12 17 21 20 15 14 17 15 9 10 12 13 15 17 19 22 24 22 19 18 14 10 8 6 7 13 17 11 3 4 4 5 10 14 16 17 18 20 22 24 26 29 29 26 23 15 14 24 21 17 18 18 16 17 16 13 11 10 7 6 4 6
35 33 32 31 29 27 24 21 18 15 14 13 13 11 11 12 11 8 6 4 8 14 14 8 7 6 7 11 15 17 18 17 12 9 10 10 12 15 17 19 21 23 22 18 14 11 12 14 13 10 12 16 11 3 4 5 7 13 18 19 21 25 27 24 23 24 25 22 19 13 5 17 21 18 18 20 19 18 18 17 15 15 14 11 8 6 7
35 34 33 31 28 24 21 18 16 15 14 14 15 14 14 17 18 17 12 7 8 12 11 4 2 3 3 9 16 18 15 10 7 7 7 7 9 11 14 18 20 20 19 15 10 7 9 12 11 9 12 14 10 3 4 9 13 19 23 25 27 28 27 24 23 23 20 17 14 9 9 15 16 16 20 22 20 19 19 17 16 16 16 14 11 9 9
35 35 35 31 25 20 16 13 13 13 13 13 12 12 11 11 14 17 16 11 9 9 8 4 2 3 4 7 10 10 9 7 6 5 3 4 7 8 8 12 14 14 14 15 11 7 7 6 5 4 6 9 7 4 6 10 14 18 22 24 23 23 23 24 23 20 16 12 10 10 13 16 16 17 21 22 20 19 19 18 17 17 16 14 12 11 11
35 36 34 30 24 19 14 11 11 11 10 11 11 11 12 12 10 11 17 18 12 6 5 5 4 3 4 4 4 5 7 8 7 6 3 2 5 6 6 6 6 6 9 11 9 5 4 4 4 3 2 4 5 6 6 8 12 16 19 22 24 23 20 18 16 14 12 10 8 8 13 16 18 20 22 22 20 19 18 18 18 18 17 16 14 13 12
36 36 33 27 24 20 13 10 11 10 9 11 13 15 14 11 8 5 12 19 17 8 3 3 4 2 2 2 3 5 7 7 6 6 4 2 2 4 4 3 2 4 7 7 4 3 4 5 3 2 2 3 4 5 8 14 18 21 23 27 28 27 22 19 19 16 10 6 6 10 15 18 20 21 21 22 21 20 19 18 18 18 18 17 16 15 14
36 35 31 27 23 19 14 13 14 14 13 14 16 14 10 5 2 1 4 14 19 15 7 3 3 4 4 2 3 5 5 5 5 4 2 2 2 1 2 2 1 2 3 3 2 3 3 4 3 3 3 4 7 13 22 28 29 29 29 30 30 27 23 21 19 14 6 6 10 16 19 18 18 19 21 21 21 21 20 20 19 18 17 17 17 16 15
35 32 30 27 21 16 15 18 20 19 17 14 10 7 4 0 3 4 5 8 11 12 9 5 5 6 6 4 5 7 4 3 5 3 2 2 1 1 1 1 1 1 2 2 2 2 2 2 2 3 4 6 12 20 27 29 23 19 19 19 18 17 15 14 10 9 12 13 14 18 21 20 19 20 21 21 22 21 20 20 19 18 17 17 16 15 14
34 32 30 26 21 17 18 20 21 19 15 8 3 2 2 2 3 3 4 4 3 5 7 6 7 9 8 6 7 11 8 3 2 2 1 1 1 0 1 1 1 2 2 2 1 3 2 2 2 3 3 4 9 16 21 22 18 12 7 8 12 11 6 9 10 12 17 19 19 21 22 22 22 22 23 23 22 20 20 20 19 19 18 17 16 15 14
34 32 29 26 24 22 20 19 18 16 11 5 3 2 1 3 3 2 3 2 2 3 6 5 6 10 12 10 6 7 6 5 3 2 2 1 2 2 1 1 3 2 2 2 2 4 2 1 2 2 2 3 10 17 19 19 18 15 11 9 14 14 5 6 10 11 16 20 22 23 23 23 23 23 23 24 23 22 21 21 21 20 19 18 17 17 17
33 30 27 25 23 22 20 19 17 13 8 5 3 1 1 2 3 3 3 1 2 3 6 6 4 4 9 12 10 6 6 7 6 3 1 2 3 2 1 1 3 2 2 2 3 4 2 2 2 2 4 7 14 18 17 14 14 15 12 9 11 13 10 9 9 11 16 20 22 23 24 24 25 25 25 25 25 24 23 23 22 21 20 20 20 20 20
28 26 24 21 20 20 18 17 16 12 5 3 3 2 1 1 2 1 2 1 3 3 5 7 5 2 3 7 9 7 6 4 2 0 1 1 2 2 0 1 2 1 1 2 2 2 2 2 1 3 5 9 14 17 14 11 11 11 8 3 5 10 16 17 16 16 17 17 18 20 22 23 24 25 26 26 26 25 25 25 24 23 23 23 23 23 22
21 21 21 17 17 18 14 11 13 10 2 0 3 3 1 3 4 2 0 2 5 7 5 4 3 2 1 2 3 4 3 1 0 0 1 1 1 2 1 1 1 1 1 2 2 2 2 2 2 4 5 11 18 24 25 25 24 23 17 10 9 14 19 21 21 21 21 20 20 22 23 23 24 26 28 28 27 27 27 26 25 26 27 27 28 27 26
16 18 17 12 12 14 10 6 9 8 3 1 4 4 3 5 6 4 4 7 9 12 14 15 11 7 3 1 1 1 1 1 1 2 1 1 1 1 2 1 2 2 2 2 2 2 2 3 4 6 12 20 26 30 31 31 31 34 35 33 30 28 27 26 25 25 23 22 23 25 26 27 26 27 28 28 26 27 28 28 28 29 31 32 33 32 30
16 18 14 8 8 12 9 4 6 6 4 2 3 3 3 6 5 5 8 13 14 17 22 23 18 11 6 4 2 1 2 2 1 1 1 1 0 1 1 1 1 2 2 2 2 3 4 5 6 11 19 25 27 28 30 30 30 34 38 40 39 36 35 34 33 31 29 27 27 28 29 28 26 27 28 28 28 30 31 31 31 32 34 35 34 33 32
15 15 10 4 5 9 7 2 2 4 3 4 7 7 7 7 7 9 15 20 22 23 24 22 17 12 9 6 4 3 4 4 2 1 2 1 1 2 2 1 1 3 3 3 4 7 7 6 8 16 23 27 28 29 32 33 34 36 38 38 37 37 37 38 36 34 33 33 32 31 31 30 28 29 30 31 31 32 32 31 32 34 35 35 35 33 32
12 12 8 4 3 5 5 3 4 6 8 10 15 17 16 13 13 17 21 22 23 23 21 17 12 9 8 8 6 5 6 5 3 2 3 2 1 2 3 2 2 2 3 4 6 5 4 7 15 23 26 27 29 31 32 33 35 37 38 38 38 38 37 37 35 33 33 33 33 34 34 33 32 32 32 31 31 31 31 31 32 33 34 34 34 32 30
12 9 7 4 1 1 4 8 11 13 15 17 20 23 23 21 22 24 24 21 20 21 20 15 10 6 7 9 7 3 4 5 4 3 3 3 1 2 3 3 2 2 3 5 5 4 5 11 19 25 26 27 31 32 33 34 36 37 37 37 38 38 37 36 35 33 32 32 32 34 34 33 32 32 32 31 30 31 32 31 31 32 32 32 31 30 29
16 11 8 4 1 3 10 14 13 13 20 26 28 29 29 27 25 25 25 21 19 18 17 14 10 5 5 8 6 3 3 5 4 2 3 4 3 3 4 3 4 5 5 4 4 7 13 19 24 27 29 31 32 31 31 33 35 36 37 38 38 38 38 36 35 33 32 31 31 32 32 32 32 31 30 30 31 32 32 31 30 30 30 30 29 29 28
17 14 12 9 5 7 14 16 11 9 17 26 29 29 28 27 28 28 26 22 20 19 17 15 11 6 3 4 4 3 3 4 3 2 4 5 4 3 4 4 5 5 5 6 10 15 20 24 27 29 31 31 31 31 32 34 34 35 37 38 38 38 38 37 36 34 33 32 31 30 31 31 31 31 31 30 30 30 31 30 29 29 29 28 28 27 27
11 11 14 16 13 11 12 12 8 6 11 17 22 25 27 27 27 27 25 23 22 20 14 8 6 4 3 4 4 3 4 4 3 3 4 4 3 3 4 5 5 6 9 15 21 23 23 24 25 28 29 31 32 32 33 33 34 35 35 35 35 35 35 35 35 35 33 32 31 30 30 30 30 29 29 28 27 27 29 30 29 28 28 27 27 26 27
8 9 13 19 23 22 20 18 15 14 16 20 25 28 30 28 26 25 27 28 26 19 12 8 6 3 3 4 4 3 4 3 4 4 4 4 3 4 5 6 8 11 15 21 25 26 25 25 26 27 28 29 30 31 31 32 34 35 34 34 33 33 32 32 32 32 31 31 30 29 28 27 27 26 25 25 26 28 30 30 29 27 26 26 25 25 25
Wind_Direction
343 341 340 338 336 335 334 335 336 340 340 342 344 343 348 341 311 339 11 15 8 22 60 13 11 2 345 339 329 332 326 333 347 341 343 349 333 324 341 352 24 14 351 10 6 357 21 24 44 76 68 62 40 4 356 351 347 360 27 345 332 333 247 222 282 306 291 275 289 299 273 211 205 216 201 183 187 186 198 208 175 185 218 160 178 251 265
342 342 340 338 338 336 335 335 335 339 340 342 344 343 343 327 312 336 17 29 32 39 40 10 1 336 344 341 332 347 351 349 346 337 340 352 346 330 328 349 37 3 341 25 27 10 35 60 57 64 73 78 34 8 354 353 0 11 16 356 331 327 314 132 46 254 245 265 280 290 304 228 224 232 206 198 195 189 201 188 132 209 210 176 198 239 244
343 343 342 341 341 339 338 337 335 339 340 341 344 343 339 334 318 331 358 14 44 52 40 27 359 337 343 334 325 345 351 350 341 331 342 7 357 332 324 350 27 26 3 32 40 26 43 60 40 50 33 57 41 3 343 344 355 351 4 2 344 282 263 82 129 207 214 215 222 226 276 299 295 283 231 211 197 189 195 187 184 225 209 178 201 237 252
344 344 345 344 344 343 341 339 338 340 340 339 344 346 343 342 322 324 342 355 29 42 33 27 5 341 343 330 321 340 335 341 346 339 351 8 356 348 357 6 19 29 21 33 41 21 18 12 15 38 15 16 30 347 332 337 348 353 8 2 349 120 21 36 118 186 207 267 263 250 306 302 295 309 288 242 209 198 198 208 209 198 181 202 219 210 230
345 345 346 345 346 346 344 343 342 341 339 339 341 348 356 352 315 331 338 339 359 7 8 13 360 330 334 322 288 330 333 338 355 354 358 358 352 351 39 35 29 21 12 19 56 12 350 353 34 44 11 350 348 335 323 337 358 7 15 357 352 93 357 337 72 30 325 302 289 281 288 271 259 284 285 269 239 208 205 218 207 148 169 231 229 190 205
345 346 347 346 345 347 346 346 345 341 338 338 340 346 359 341 301 321 328 319 350 349 338 343 336 319 323 313 277 323 339 343 351 356 344 350 357 359 27 31 28 17 4 355 11 13 355 360 37 41 10 351 349 342 326 355 9 12 13 354 13 121 262 303 39 345 303 283 283 280 281 262 250 262 265 268 262 230 219 222 196 160 202 237 229 191 199
345 345 347 346 345 346 347 347 346 343 338 335 340 342 333 304 290 304 316 305 295 296 302 312 318 315 318 316 304 325 337 338 341 349 331 332 7 30 4 355 358 357 358 347 326 13 32 2 1 10 356 352 353 340 316 346 9 12 5 343 359 132 265 320 15 334 310 295 280 278 289 287 278 274 264 263 262 249 240 234 211 200 222 241 232 196 197
345 345 345 344 344 345 346 348 346 344 340 337 339 336 318 307 294 299 307 294 283 283 288 299 307 313 319 321 329 331 331 331 334 335 314 292 332 26 359 339 341 336 335 330 293 298 14 358 309 321 349 347 330 302 277 324 358 2 349 325 339 351 309 335 16 349 310 299 297 299 303 301 289 278 267 262 265 264 258 246 227 219 225 238 239 213 209
344 344 343 342 342 343 344 346 345 343 341 338 334 328 320 315 308 306 302 289 289 289 287 298 298 301 319 327 337 339 328 327 330 320 289 258 295 9 342 330 330 317 315 319 287 308 342 312 281 284 281 263 255 266 291 337 352 350 318 314 338 332 284 349 31 8 295 296 321 320 316 310 289 273 269 266 260 257 257 242 221 214 212 223 237 231 227
345 344 343 340 340 341 342 342 343 341 340 338 329 323 326 325 317 313 306 289 296 295 283 290 290 293 333 328 326 325 313 315 323 317 291 301 331 342 330 320 321 308 301 324 333 325 317 301 293 289 272 259 258 257 259 265 260 242 307 320 290 238 246 323 29 16 289 292 311 321 322 313 282 264 271 270 252 240 242 243 230 216 202 208 228 230 218
344 344 343 340 339 340 340 341 341 340 338 336 326 319 325 326 313 310 307 281 275 296 291 278 273 293 314 315 314 310 304 308 313 310 323 322 315 317 319 309 298 271 282 322 335 324 311 302 296 286 268 256 249 244 246 248 236 223 217 245 262 235 212 242 157 124 280 291 314 328 303 263 263 286 78 265 259 247 240 240 236 220 208 220 237 232 208
344 342 341 340 338 338 338 339 339 339 338 333 322 318 324 324 306 298 289 278 300 330 311 275 278 288 298 301 301 300 297 302 309 308 305 300 301 308 314 303 277 288 311 323 328 323 314 304 290 276 262 249 239 235 235 236 233 226 215 207 234 249 220 225 173 140 259 297 337 321 235 241 309 338 347 310 292 318 279 248 236 227 221 231 244 241 224
346 343 341 338 336 336 336 336 335 336 336 332 323 319 320 315 299 289 280 277 288 289 289 289 283 281 286 290 292 297 298 301 307 306 297 289 296 305 309 306 300 311 320 325 324 323 321 307 292 281 269 253 243 234 226 225 230 227 217 209 209 215 215 216 194 171 214 299 313 233 248 302 320 327 347 355 4 11 355 281 249 246 232 226 233 240 239
343 342 340 337 335 333 332 332 332 331 331 329 323 319 316 308 293 283 279 276 270 280 296 301 285 276 284 293 299 305 307 308 308 302 292 290 293 297 305 311 315 319 324 325 323 324 338 334 338 334 319 328 335 268 227 222 225 223 217 211 201 200 204 199 203 199 179 216 251 259 301 318 316 328 17 13 341 340 345 272 269 290 294 234 234 239 244
341 339 336 334 332 330 328 327 327 325 324 323 320 317 317 308 290 279 274 271 278 285 272 258 261 281 293 301 306 306 305 307 307 303 301 296 286 291 309 317 323 327 327 323 321 3 51 13 357 330 326 3 322 294 270 228 229 223 218 212 200 199 204 194 197 201 171 197 256 289 310 289 261 242 333 303 275 271 185 189 279 317 358 344 289 251 240
343 340 336 332 327 324 324 323 322 320 319 318 316 314 316 307 288 278 272 268 272 272 237 230 255 282 291 295 296 289 278 286 315 311 304 296 294 309 318 325 333 334 327 321 335 91 45 69 181 243 259 247 269 277 287 317 294 234 214 205 199 204 218 229 229 210 166 177 218 231 242 244 242 264 288 298 294 266 126 164 271 321 359 347 323 278 255
342 340 338 334 327 321 318 317 317 317 314 314 311 309 312 308 291 281 273 266 261 260 262 265 271 277 284 290 282 269 262 275 291 294 294 314 315 312 319 335 344 340 332 328 70 36 26 202 229 252 238 233 254 261 269 284 292 303 208 183 190 200 215 235 243 230 191 190 213 224 236 252 272 294 311 327 336 46 127 204 260 321 339 334 328 307 290
338 336 335 334 330 323 315 310 310 309 308 309 305 302 306 306 292 281 271 266 264 266 271 273 268 263 258 256 268 273 277 282 280 272 283 298 298 301 323 336 336 336 349 360 205 279 234 226 242 247 245 261 130 248 283 281 254 295 5 126 185 200 207 216 230 235 215 204 217 246 245 253 278 293 319 342 357 78 159 211 289 318 322 330 340 339 334
334 333 332 332 330 325 317 309 305 301 301 302 297 294 299 301 292 282 270 265 264 264 267 266 258 260 263 264 268 270 270 270 268 269 291 292 291 320 326 324 308 289 340 356 235 269 262 244 224 229 265 321 48 284 300 284 254 303 339 311 211 191 197 212 218 229 229 209 212 242 251 253 248 261 351 15 29 175 224 299 312 317 323 339 349 352 3
332 331 330 330 329 325 320 314 306 297 294 295 292 291 293 293 288 282 273 267 267 271 277 277 271 269 269 263 260 263 264 258 248 238 249 265 301 330 328 322 327 335 323 297 269 335 290 279 313 307 270 286 275 290 298 268 256 262 273 279 265 209 225 228 210 213 225 213 209 217 219 230 240 242 15 36 60 245 292 305 312 335 349 349 351 0 17
330 329 328 328 327 324 319 315 310 301 291 287 287 287 288 288 285 281 275 271 268 272 280 284 278 272 270 266 263 262 259 255 251 245 246 258 275 300 310 307 328 339 360 12 298 274 323 310 297 266 276 287 270 283 298 290 284 251 215 248 276 236 216 228 221 215 208 205 214 205 178 182 193 172 133 87 252 290 303 297 307 360 8 356 354 5 19
328 327 327 327 326 323 316 310 308 303 292 284 280 279 280 283 284 282 280 273 265 264 272 279 281 280 277 275 272 268 263 263 264 261 256 258 260 249 251 275 287 275 268 315 320 233 272 291 284 289 290 270 236 265 275 283 299 299 200 226 259 255 274 296 281 266 259 254 246 149 134 143 131 112 102 87 33 341 328 312 325 4 11 7 5 10 19
327 326 326 326 326 323 316 307 304 299 291 283 276 270 272 279 282 281 280 278 274 276 282 285 285 283 281 281 281 276 270 266 264 260 253 249 252 252 249 252 256 255 249 242 233 234 277 270 259 286 284 246 238 283 272 248 264 291 287 260 264 288 307 309 288 288 297 277 238 157 134 145 136 109 92 72 30 10 10 5 10 17 14 12 15 21 28
325 325 326 326 327 326 319 309 301 295 288 280 272 268 270 275 277 276 275 275 278 286 292 288 280 280 288 299 303 287 269 256 253 256 250 240 236 239 243 241 240 241 245 248 249 248 252 263 253 243 251 222 180 248 259 249 256 278 287 283 277 299 323 321 283 279 289 265 213 161 144 156 143 113 98 79 8 348 360 11 19 27 23 15 21 33 41
325 325 326 326 325 326 323 315 304 294 286 277 270 266 267 269 270 271 270 269 274 284 295 291 284 285 296 309 302 293 287 277 267 265 258 245 238 237 242 246 248 249 259 272 267 246 242 256 246 247 258 217 175 203 241 241 257 297 308 288 276 313 347 341 299 272 279 280 256 156 148 165 150 115 112 117 6 333 340 357 10 27 34 22 20 35 46
326 326 327 326 324 323 320 316 308 296 285 276 266 261 261 263 267 267 264 265 272 271 264 273 281 285 293 301 302 302 302 296 283 271 263 254 249 250 253 255 257 257 260 271 269 253 248 249 230 254 262 201 186 208 224 234 269 288 272 262 262 280 303 297 271 277 292 287 265 151 131 173 185 147 144 155 192 304 339 6 10 19 28 20 14 33 49
327 328 328 327 325 321 315 313 309 300 289 277 265 259 259 262 264 264 261 260 261 260 253 264 276 288 298 300 304 311 307 298 286 270 261 255 252 254 254 250 250 252 252 258 263 258 252 244 237 250 251 231 230 235 231 247 261 254 255 261 261 270 273 254 252 273 276 273 261 206 151 172 176 160 155 157 177 205 154 42 21 13 14 360 348 11 55
328 330 330 328 326 321 314 311 309 302 292 279 267 262 261 261 262 264 264 260 252 248 258 272 280 291 298 299 308 324 323 311 292 265 253 247 244 247 248 246 245 244 242 243 250 243 228 233 241 241 238 239 249 243 232 246 252 241 252 255 240 239 253 251 248 253 255 278 288 283 269 163 153 153 150 151 165 177 157 105 57 31 15 337 316 349 57
331 331 331 328 325 321 317 314 309 303 297 286 270 264 264 265 267 267 266 262 254 251 256 269 280 284 285 296 312 325 331 323 305 277 258 248 239 238 240 239 239 238 234 231 232 235 238 242 244 244 237 223 224 257 242 240 248 249 257 262 258 256 255 250 245 253 264 271 277 282 285 200 164 159 156 157 162 164 152 132 116 108 95 289 278 348 61
333 334 332 328 324 322 321 318 311 303 298 284 266 263 272 279 283 270 256 251 244 241 245 257 277 276 276 290 303 309 313 316 310 287 262 256 247 241 240 238 236 236 231 225 228 237 242 240 240 244 239 229 221 275 251 226 251 263 261 264 267 265 260 256 256 263 268 268 274 289 293 225 165 154 152 155 156 157 151 141 134 133 140 202 227 158 84
335 335 334 331 326 323 321 320 313 305 295 276 258 247 256 284 297 253 230 232 224 223 229 242 265 279 284 289 292 296 307 315 312 290 265 257 245 240 240 236 232 228 221 220 228 236 239 240 237 235 230 221 212 226 251 236 267 275 267 266 271 273 272 269 267 268 271 272 279 291 277 190 160 149 147 152 156 160 155 146 144 146 148 170 196 160 104
336 335 334 333 329 325 323 321 313 305 299 289 281 273 268 275 281 269 250 233 208 208 216 239 274 280 282 287 292 301 310 313 307 291 280 264 238 227 225 225 226 225 219 216 222 230 236 237 237 240 234 222 209 216 258 239 249 266 272 281 288 284 280 277 276 279 278 273 275 284 220 163 159 156 155 156 160 163 158 154 156 156 154 161 169 146 116
337 336 336 335 333 329 325 320 312 308 305 301 302 304 294 282 276 271 264 246 207 203 205 221 288 263 261 294 304 311 316 312 294 288 289 262 227 215 216 218 220 220 217 213 211 223 236 230 227 240 239 223 210 221 259 243 249 263 273 280 283 284 287 293 295 293 285 267 254 242 186 170 171 166 160 159 160 162 163 163 164 164 164 165 160 141 126
337 338 339 339 339 337 332 326 320 311 299 293 306 326 325 299 276 262 249 230 205 205 214 219 245 260 277 300 307 310 317 314 295 292 293 233 211 208 213 212 208 206 211 214 215 229 243 230 216 232 224 207 206 239 258 253 258 265 271 277 283 290 300 305 304 298 287 265 243 222 203 191 177 163 160 159 157 158 161 162 163 165 164 159 151 139 131
339 341 342 343 346 348 345 338 333 321 303 297 310 326 329 320 301 262 238 225 210 197 219 225 227 266 292 293 291 304 316 313 296 287 291 234 215 221 214 195 188 199 210 212 215 231 239 222 221 229 200 189 213 235 252 270 278 280 283 289 296 303 305 302 299 296 287 271 251 218 196 182 166 156 155 155 153 154 156 156 157 156 147 138 132 128 124
342 344 345 347 350 353 351 347 343 336 320 313 318 326 326 319 316 289 241 228 219 204 193 210 214 234 266 273 295 306 311 314 308 294 281 265 252 238 213 181 186 212 203 198 213 237 211 200 213 225 201 206 226 257 287 293 292 292 292 292 295 300 298 289 286 288 285 264 216 180 169 164 159 154 151 150 151 153 153 150 147 142 132 125 121 118 112
344 347 348 350 355 357 355 351 347 339 329 321 318 323 328 314 274 133 202 216 218 220 225 232 236 234 231 248 295 299 300 322 336 323 264 251 284 243 195 187 225 230 213 207 243 251 214 207 233 253 240 252 278 292 293 288 284 283 286 289 293 296 293 284 277 269 235 173 161 159 158 158 155 150 146 144 147 150 149 146 142 137 129 122 117 113 108
348 351 352 355 360 0 352 345 338 331 329 327 319 309 306 238 136 139 168 198 217 226 230 237 253 244 227 226 259 267 276 332 344 331 272 263 296 287 239 243 235 270 282 262 249 276 263 224 238 267 273 278 287 294 300 303 301 292 288 295 305 303 286 268 250 205 169 154 150 151 151 151 151 149 146 145 145 145 143 138 133 130 125 119 114 112 110
352 354 355 356 357 353 346 342 337 333 334 340 337 290 243 191 138 139 176 194 220 228 224 234 252 240 218 212 255 268 267 274 330 321 278 252 293 305 265 283 336 324 287 260 7 356 323 256 278 308 293 275 290 305 323 344 3 19 26 13 5 354 296 233 206 174 162 159 157 156 155 153 154 154 151 148 144 139 133 129 126 123 122 119 115 110 105
356 356 354 352 350 351 351 349 344 341 343 344 334 323 254 213 202 163 159 185 243 225 215 231 254 243 229 225 253 278 266 233 239 287 308 325 338 334 284 322 360 349 266 258 11 20 356 264 292 297 260 280 314 330 348 3 12 23 38 28 10 13 35 178 178 163 159 160 158 158 158 157 156 154 150 147 144 139 134 131 129 126 123 118 111 105 102
355 353 349 346 347 352 359 2 356 346 340 344 341 320 232 236 233 189 158 192 272 229 213 221 247 255 234 226 226 241 252 247 252 272 343 11 337 328 289 303 341 338 257 277 8 23 337 288 303 297 292 313 326 339 354 4 2 14 33 25 3 21 63 104 118 129 147 156 157 158 159 156 151 149 146 144 142 139 136 134 130 125 120 114 109 106 107
352 349 344 344 352 358 1 6 3 350 328 340 354 318 238 282 291 219 175 225 271 251 216 215 224 251 233 219 218 228 244 252 254 257 69 22 344 351 80 287 331 355 298 302 348 4 326 325 330 307 321 336 336 338 349 1 2 14 40 40 2 43 72 83 87 101 120 132 135 139 142 139 134 133 134 134 133 132 133 133 129 123 117 112 108 106 106
356 353 347 348 360 5 4 2 359 354 342 26 358 346 340 352 343 331 340 320 319 330 337 319 305 328 334 228 232 238 235 216 123 165 165 113 45 34 41 355 336 339 326 338 354 339 322 337 308 290 338 13 14 15 26 36 35 33 43 69 83 77 76 76 77 84 92 98 101 107 114 116 114 116 121 128 130 129 128 127 124 120 115 110 106 104 104
5 4 1 1 3 3 2 353 348 352 5 22 355 350 346 347 346 351 355 342 336 342 352 354 357 8 26 348 277 270 250 231 228 221 184 125 105 9 7 2 323 308 333 13 13 315 317 14 44 47 43 39 34 33 39 45 44 42 48 60 69 71 71 71 72 74 80 86 90 93 97 102 104 106 112 120 124 121 117 115 114 113 111 107 105 104 104
14 4 3 16 15 5 5 1 352 358 10 360 344 345 348 347 345 344 345 343 343 348 356 360 4 13 18 6 354 357 337 307 255 201 41 45 45 360 5 347 316 341 10 18 2 10 27 38 49 48 43 39 38 40 44 48 52 56 58 60 62 64 65 66 66 65 66 71 77 81 85 91 94 94 98 104 110 110 109 108 108 108 107 104 103 102 101
20 6 6 36 25 6 4 360 350 360 352 331 335 340 335 324 321 336 349 352 352 354 358 1 5 12 16 16 19 10 350 343 341 350 355 14 35 360 353 354 6 12 24 30 27 34 41 36 28 33 37 40 45 49 51 53 58 61 63 63 63 65 67 68 66 63 63 67 72 75 79 83 84 84 86 93 100 103 103 102 102 102 100 97 95 96 96
22 11 19 42 17 2 10 8 345 336 326 329 340 348 348 347 356 6 7 4 2 6 11 10 7 9 17 18 16 6 357 360 2 345 349 16 49 333 354 30 32 7 23 45 39 36 38 36 35 37 41 46 52 53 54 56 60 62 63 64 66 69 73 74 73 71 71 71 72 74 78 82 84 83 84 88 92 94 96 97 96 95 93 91 91 93 93
28 15 24 37 20 338 343 336 334 342 354 0 2 5 11 16 17 16 15 12 12 16 19 12 1 1 9 9 8 359 347 358 10 1 355 12 33 352 5 22 14 354 24 48 46 38 35 39 42 44 48 52 55 54 53 56 59 61 62 64 65 68 73 76 76 77 78 78 77 78 81 85 87 88 89 90 91 93 96 97 95 92 90 91 92 92 92
42 38 36 34 22 346 350 346 343 356 11 15 14 14 18 20 17 15 17 20 23 27 26 18 11 7 348 347 357 14 6 3 8 355 357 17 31 10 1 12 19 22 27 29 29 39 46 49 53 55 55 54 55 56 56 59 61 62 63 64 66 69 73 75 75 77 80 80 81 83 86 89 91 93 94 93 92 93 96 97 94 92 91 91 90 90 89
48 48 41 33 21 354 355 1 6 8 8 10 11 12 14 14 14 17 23 26 29 36 39 31 23 23 355 339 2 31 12 2 7 1 12 27 33 8 3 17 21 22 21 17 23 36 48 55 59 60 59 58 59 59 59 61 63 64 65 67 69 70 71 72 73 75 78 81 85 87 88 88 90 92 93 92 92 93 95 95 94 94 94 93 92 91 89
42 43 37 36 34 18 6 11 21 9 360 3 7 11 15 15 15 20 28 33 36 41 40 15 350 355 13 20 28 11 330 336 1 19 19 21 15 7 25 28 10 3 19 29 34 41 49 53 55 56 57 59 62 64 64 65 66 66 67 69 71 70 70 71 71 72 75 79 83 85 86 87 88 90 91 91 92 91 90 90 91 93 93 92 91 91 90
30 31 33 34 34 33 32 31 24 14 14 17 19 21 24 23 22 30 41 44 43 40 25 356 351 25 37 13 2 337 323 344 21 31 27 23 19 22 28 21 9 14 30 41 47 52 54 54 56 58 59 60 63 67 69 69 69 68 68 67 67 67 67 67 66 67 68 70 72 76 80 84 88 89 88 87 86 86 86 87 89 91 92 91 91 92 91